Total_Precipitation_Accumulation
1.90 1.97 1.99 2.02 1.89 1.99 2.18 2.43 2.34 2.43 2.47 2.26 1.98 1.85 1.94 1.94 2.03 1.99 1.94 2.12 2.04 2.02 2.46 2.57 2.29 2.00 1.85 1.59 1.38 1.16 1.04 0.96 0.84 0.66 0.57 0.62 0.69 0.75 0.69 0.59 0.55 0.51 0.44
2.31 2.25 2.08 2.09 1.99 2.01 2.11 2.31 2.41 2.73 2.68 2.60 2.18 1.99 2.03 2.10 2.10 2.19 2.12 2.39 2.25 1.97 2.19 2.44 2.54 2.39 2.15 1.98 1.71 1.46 1.27 1.15 1.00 0.74 0.62 0.60 0.64 0.73 0.70 0.69 0.64 0.59 0.50
2.49 2.42 2.29 2.11 2.11 2.14 2.28 2.34 2.45 2.75 2.74 2.64 2.44 2.26 2.17 1.96 1.83 1.90 1.96 2.14 2.07 1.92 1.98 2.18 2.45 2.53 2.41 2.30 2.12 1.92 1.62 1.36 1.17 0.93 0.76 0.62 0.55 0.60 0.61 0.65 0.66 0.63 0.53
2.54 2.56 2.34 2.09 2.21 2.18 2.30 2.57 2.67 2.82 2.97 2.97 2.71 2.44 2.27 2.08 1.86 1.81 1.73 1.73 1.90 1.58 1.78 2.02 2.22 2.34 2.60 2.71 2.71 2.69 2.28 1.77 1.38 1.17 0.97 0.78 0.64 0.58 0.52 0.54 0.59 0.55 0.47
2.43 2.53 2.33 2.22 2.30 2.46 2.50 2.33 2.81 3.06 3.10 3.08 2.59 2.46 2.09 1.94 1.77 1.61 1.61 1.48 1.56 1.56 1.63 1.72 1.86 1.97 2.44 3.00 3.30 3.34 3.10 2.47 1.85 1.50 1.32 1.14 0.94 0.78 0.61 0.53 0.52 0.46 0.39
2.31 2.55 2.25 2.22 2.39 2.60 2.62 2.67 3.03 3.13 2.99 3.11 2.65 2.29 1.89 1.56 1.48 1.45 1.34 1.28 1.25 1.21 1.29 1.62 1.92 1.73 2.11 2.64 2.96 3.17 3.37 3.17 2.51 1.92 1.68 1.52 1.36 1.14 0.85 0.68 0.60 0.56 0.47
2.46 2.79 2.47 2.61 2.52 2.52 2.55 2.71 2.93 2.88 2.73 3.08 3.12 2.41 1.66 1.27 1.22 1.08 1.06 1.08 1.02 1.05 1.28 1.69 1.96 1.98 1.74 1.79 2.03 2.37 2.88 3.23 3.10 2.54 2.15 1.94 1.80 1.47 1.11 0.92 0.76 0.66 0.58
2.59 2.56 2.66 2.56 2.58 2.60 2.42 2.49 2.78 2.64 2.30 2.67 2.96 2.93 2.17 1.66 1.23 0.81 0.90 0.93 0.98 1.15 1.22 1.30 1.64 1.97 1.89 2.02 1.79 1.66 2.21 2.85 3.27 3.18 2.80 2.40 2.07 1.70 1.43 1.26 1.03 0.84 0.70
2.61 2.61 2.49 2.39 2.45 2.37 2.27 2.25 2.43 2.53 2.34 2.32 2.66 3.04 2.48 1.87 1.44 0.98 0.91 0.90 1.11 1.41 1.42 1.43 1.54 1.78 1.91 2.11 2.17 2.04 1.87 2.06 2.73 3.50 3.54 2.93 2.24 1.80 1.59 1.54 1.49 1.25 1.02
2.86 2.63 2.43 2.29 2.19 2.09 2.14 1.90 2.14 2.31 2.38 2.07 2.20 2.32 2.20 2.14 2.05 1.48 1.10 1.01 1.26 1.43 1.47 1.48 1.52 1.69 1.83 2.10 2.27 2.14 1.72 1.56 1.87 2.78 3.39 3.31 2.74 2.07 1.71 1.75 2.06 1.97 1.55
2.96 2.64 2.52 2.39 2.24 2.08 1.99 1.92 2.09 2.02 2.04 1.97 2.04 2.06 2.07 2.07 1.98 1.86 1.52 1.37 1.30 1.09 1.12 1.24 1.45 1.73 1.83 1.97 2.22 2.04 1.85 1.79 1.73 1.86 2.22 2.55 2.68 2.41 2.12 2.12 2.54 2.78 2.52
2.57 2.38 2.30 2.21 2.07 2.04 2.03 1.98 1.95 1.92 1.96 2.03 2.00 1.95 2.01 2.02 2.01 2.10 1.82 1.60 1.44 1.21 1.16 1.21 1.36 1.53 1.63 1.70 1.73 1.84 1.80 1.76 1.63 1.55 1.58 1.69 1.91 2.18 2.37 2.57 2.97 3.34 3.48
1.83 1.80 1.87 1.87 1.81 1.85 1.89 1.98 1.87 1.78 1.87 1.99 1.94 1.90 1.96 1.95 2.00 2.11 2.04 1.69 1.59 1.40 1.41 1.31 1.24 1.40 1.44 1.62 1.77 1.74 1.50 1.47 1.31 1.26 1.27 1.32 1.47 1.69 1.88 2.11 2.56 3.05 3.45
1.57 1.62 1.68 1.66 1.64 1.68 1.65 1.85 1.71 1.63 1.71 1.72 1.64 1.90 1.90 1.70 1.87 2.01 2.07 2.08 1.93 1.78 1.81 1.60 1.36 1.33 1.48 1.63 1.74 1.68 1.42 1.29 1.11 1.00 1.00 1.02 1.09 1.25 1.45 1.67 1.92 2.19 2.50
1.56 1.61 1.56 1.60 1.63 1.67 1.75 1.85 1.68 1.61 1.77 1.71 1.66 1.85 1.84 1.76 1.82 1.89 2.07 2.22 2.33 2.18 2.04 1.87 1.56 1.45 1.52 1.59 1.76 1.60 1.58 1.43 1.15 1.02 0.99 0.97 0.95 1.01 1.14 1.35 1.54 1.68 1.90
1.67 1.69 1.64 1.68 1.67 1.65 1.69 1.74 1.53 1.54 1.74 1.78 1.86 2.04 2.00 1.90 1.92 1.96 2.10 2.31 2.52 2.52 2.18 1.75 1.61 1.59 1.70 1.64 1.81 1.57 1.52 1.57 1.33 1.11 1.00 1.00 0.99 1.00 1.04 1.19 1.35 1.50 1.64
1.68 1.65 1.61 1.63 1.63 1.59 1.65 1.69 1.52 1.62 1.74 1.77 1.79 1.94 2.00 2.06 2.06 2.06 2.19 2.30 2.53 2.77 2.49 2.00 1.88 1.88 1.99 1.98 1.89 1.66 1.47 1.39 1.24 1.18 1.03 0.97 0.96 0.98 1.03 1.09 1.24 1.38 1.47
1.66 1.68 1.68 1.67 1.57 1.59 1.77 1.81 1.70 1.76 1.82 1.80 1.84 1.96 1.87 2.00 2.14 2.12 2.25 2.26 2.36 2.65 2.55 2.30 2.24 2.19 2.18 2.07 2.04 1.84 1.53 1.38 1.31 1.26 1.06 0.97 0.96 0.95 0.99 1.02 1.12 1.28 1.40
1.71 1.77 1.82 1.86 1.85 1.87 1.87 1.91 2.00 1.96 1.88 1.79 1.85 1.84 1.80 1.99 2.02 2.12 2.24 2.20 2.17 2.31 2.48 2.41 2.35 2.42 2.39 2.26 2.16 1.97 1.79 1.73 1.44 1.37 1.28 1.17 1.14 1.12 1.11 1.10 1.10 1.17 1.28
1.79 1.88 1.91 2.04 2.22 2.27 2.25 2.18 2.08 2.02 1.95 1.89 1.86 1.82 1.81 1.86 1.90 1.97 2.07 2.16 2.22 2.32 2.42 2.43 2.48 2.61 2.59 2.62 2.54 2.30 2.18 2.11 1.82 1.49 1.46 1.35 1.26 1.16 1.08 1.02 1.00 1.05 1.15
1.72 2.00 2.14 2.21 2.46 2.60 2.45 2.45 2.36 2.26 2.23 2.05 1.94 1.86 1.76 1.77 1.82 1.85 1.80 1.90 2.02 2.16 2.17 2.23 2.29 2.50 2.59 2.70 2.67 2.48 2.35 2.33 2.16 1.77 1.61 1.48 1.40 1.28 1.24 1.19 1.08 1.03 1.06
1.62 1.80 1.94 2.06 2.11 1.96 2.11 2.12 2.11 2.14 2.17 2.06 2.00 1.95 1.81 1.71 1.68 1.63 1.54 1.55 1.62 1.71 1.87 2.08 2.13 2.33 2.52 2.67 2.85 2.89 2.71 2.54 2.38 2.10 1.98 1.83 1.59 1.50 1.34 1.22 1.18 1.00 0.89
1.56 1.67 1.70 1.78 1.75 1.80 1.81 1.61 1.57 1.55 1.70 1.82 1.89 1.88 1.66 1.52 1.60 1.53 1.55 1.51 1.49 1.58 1.67 1.90 2.07 2.14 2.35 2.54 2.76 2.90 2.89 2.78 2.58 2.41 2.28 2.13 1.79 1.58 1.38 1.26 1.18 0.95 0.81
1.59 1.58 1.63 1.68 1.75 1.74 1.64 1.43 1.43 1.39 1.52 1.64 1.72 1.77 1.73 1.65 1.65 1.68 1.61 1.50 1.41 1.47 1.56 1.54 1.58 1.72 1.97 2.32 2.50 2.54 2.67 2.68 2.54 2.37 2.30 2.26 2.01 1.80 1.59 1.44 1.34 1.06 0.90
1.79 1.72 1.76 1.82 1.82 1.76 1.64 1.45 1.45 1.40 1.51 1.56 1.57 1.60 1.62 1.56 1.62 1.50 1.40 1.39 1.38 1.41 1.40 1.38 1.35 1.39 1.52 1.73 2.07 2.22 2.30 2.26 2.15 1.91 1.80 1.87 1.84 1.81 1.75 1.61 1.43 1.25 1.05
2.19 2.17 2.09 1.98 1.87 1.77 1.72 1.45 1.38 1.33 1.43 1.50 1.57 1.54 1.48 1.36 1.31 1.25 1.22 1.33 1.31 1.30 1.35 1.30 1.21 1.15 1.12 1.27 1.57 1.75 1.83 1.87 1.78 1.72 1.46 1.45 1.49 1.55 1.66 1.54 1.38 1.31 1.23